Location: �clusier
(49.9361°N, 2.7869°E)
Time: 06:27:45
(UTC+00:00)

Cosmos 2016 Rocket - Pass Details

Date: 24 October 2021
Orbit: 947 x 1000 km, 83.0° (Epoch: 05 December)

Event Time Altitude Azimuth Distance (km) Brightness Sun altitude
Exits shadow 19:24:00 27° 29° (NNE) 1,755 5.2 -26.9°
Drops below altitude 10° 19:26:46 10° 17° (NNE) 2,694 6.3 -27.3°
Sets 19:29:18 0° 13° (NNE) 3,639 7.0 -27.7°
